sat.trackr.live / text

‹ back to catalog

STARLINK-34911

NORAD 65325 · 2025-189C

PAYLOAD ACTIVE UNKNOWN

§ Identity

Operator
Country
US
Launch date
2025-08-27
Launch site
AFETR
Launch vehicle
Mass (kg)
RCS (m²)

Purposes: comms

External: N2YO · Heavens-Above · Gunter

§ Orbital elements

Epoch: 2026-05-24T21:54:43.466112Z

Period
94.11 min
Inclination
53.1589°
Eccentricity
0.0001355
Mean motion
15.30179135 rev/d
Perigee alt
474.3 km
Apogee alt
476.2 km
Semi-major
6,853.4 km
B*
6.5741e-4
RAAN
212.9284°
Arg perigee
81.9654°
Mean anomaly
278.1500°
Rev number
4,277

§ Raw data

STARLINK-349111 65325U 25189C   26144.91300308  .00019149  00000+0  65741-3 0  99962 65325  53.1589 212.9284 0001355  81.9654 278.1500 15.30179135 42777

JSON: /api/v1/satellites/65325 · /tle

For live sub-satellite position, see the globe view (requires WebGL).

§ Visibility from observer

Set your observer location to see the next 7 days of passes ≥ 10°. The values pass through the URL so the page stays shareable.

No JS? Fill the form by hand. The geolocation button needs JavaScript.